Tracking 17856 objects as of 28-September-2016
HD Live streaming from Space Station
objects crossing your sky now

EUTELSAT 2-F4

Track EUTELSAT 2-F4 now!
EUTELSAT 2-F4 is classified as:


NORAD ID: 22028
Int'l Code: 1992-041B
Perigee: 36,084.9 km
Apogee: 36,182.1 km
Inclination: 12.6 °
Period: 1,453.5 minutes
Semi major axis: 42504 km
RCS: 3.1622 m2 (large)
Launch date: July 9, 1992
Source: European Telecommunications Satellite Organization (EUTE)
Launch site: FRENCH GUIANA (FRGUI)
Your satellite tracking list
Your tracking list is empty





NASA's NSSDC Master Catalog

Two Line Element Set (TLE):
1 22028U 92041B   16271.39444216  .00000000  00000-0  10000-3 0  9994
2 22028  12.5723  34.3136 0011434 177.3469 182.6882  0.99072026 81061
Source of the keplerian elements: AFSPC

N2YO: 508